TimeHST,TemperatureF,Dew PointF,Humidity,Sea Level PressureIn,VisibilityMPH,Wind Direction,Wind SpeedMPH,Gust SpeedMPH,PrecipitationIn,Events,Conditions,WindDirDegrees,DateUTC
12:56 AM,97.0,54.0,23,30.02,10.0,North,15.0,-,N/A,,Overcast,360,2013-04-02 10:56:00
1:56 AM,97.0,53.1,23,30.01,10.0,North,16.1,-,N/A,,Mostly Cloudy,360,2013-04-02 11:56:00
2:56 AM,97.0,52.0,22,30.01,10.0,North,12.7,-,N/A,,Overcast,360,2013-04-02 12:56:00
3:56 AM,97.0,52.0,22,30.01,10.0,North,13.8,-,N/A,,Partly Cloudy,350,2013-04-02 13:56:00
4:56 AM,96.1,52.0,22,30.01,10.0,North,9.2,-,N/A,,Partly Cloudy,10,2013-04-02 14:56:00
5:56 AM,97.0,53.1,23,30.02,10.0,North,11.5,-,N/A,,Partly Cloudy,350,2013-04-02 15:56:00
6:56 AM,104.0,57.0,21,30.04,10.0,NNE,19.6,-,N/A,,Overcast,20,2013-04-02 16:56:00
7:56 AM,-9999,-9999,N/A,30.06,10.0,North,11.5,17.3,0.00,,Overcast,10,2013-04-02 17:56:00
8:56 AM,-9999,-9999,N/A,30.07,10.0,North,15.0,-,0.00,,Scattered Clouds,10,2013-04-02 18:56:00
9:56 AM,-9999,-9999,N/A,30.08,10.0,North,16.1,-,N/A,,Mostly Cloudy,360,2013-04-02 19:56:00
10:56 AM,-9999,-9999,N/A,30.08,10.0,North,18.4,-,N/A,,Clear,10,2013-04-02 20:56:00
11:56 AM,7.0,-9999,N/A,30.06,-9999.0,North,19.6,-,N/A,,Clear,350,2013-04-02 21:56:00
12:56 PM,7.0,-9999,N/A,30.04,-9999.0,North,21.9,-,N/A,,Scattered Clouds,350,2013-04-02 22:56:00
1:56 PM,8.1,-9999,N/A,30.03,-9999.0,North,19.6,-,N/A,,Mostly Cloudy,350,2013-04-02 23:56:00
2:56 PM,7.0,7.0,100,30.02,-9999.0,North,19.6,-,N/A,,Mostly Cloudy,350,2013-04-03 00:56:00
3:56 PM,1.0,-9999,N/A,30.01,-9999.0,North,17.3,-,N/A,,Mostly Cloudy,350,2013-04-03 01:56:00
4:56 PM,34.0,34.0,100,30.02,10.0,North,19.6,-,N/A,,Mostly Cloudy,10,2013-04-03 02:56:00
5:56 PM,-9999,-9999,N/A,30.03,10.0,NNE,10.4,-,N/A,,Partly Cloudy,20,2013-04-03 03:56:00
6:56 PM,-9999,-9999,N/A,30.05,10.0,Variable,4.6,-,N/A,,Clear,0,2013-04-03 04:56:00
7:56 PM,-9999,-9999,N/A,30.07,10.0,NNE,8.1,-,N/A,,Clear,30,2013-04-03 05:56:00
8:56 PM,-9999,-9999,N/A,30.09,10.0,ENE,3.5,-,N/A,,Clear,60,2013-04-03 06:56:00
9:56 PM,-9999,-9999,N/A,30.10,10.0,ENE,4.6,-,N/A,,Clear,60,2013-04-03 07:56:00
10:56 PM,-9999,-9999,N/A,30.11,10.0,ENE,4.6,-,N/A,,Mostly Cloudy,70,2013-04-03 08:56:00
11:56 PM,30.0,30.0,100,30.09,10.0,ENE,4.6,-,N/A,,Clear,60,2013-04-03 09:56:00